Vertical_Velocity
-2 -4 -2 -3 -4 -6 -3 -2 -2 -2 -1 -1 1 -0 -5 -4 -4 1 -12 -3 -2 8 4 2 5 3 4 3 2 2 -1 0 -2 -1 -5 1 -0 1 2 -2 0 0 2 0 -3
-2 -4 -3 -5 -4 -3 -5 -2 -3 -2 -6 -10 -7 -6 1 -1 -4 3 -6 3 1 -1 5 -1 -3 2 4 2 1 0 1 -6 -4 -1 -1 -0 -1 -2 -0 0 1 1 -0 4 1
-3 -0 -3 -3 1 -0 -1 -3 -3 -4 -2 -4 -3 -1 -5 -1 -8 -1 -5 -1 4 6 7 12 18 3 3 1 -1 0 -1 -2 -2 -1 -0 -0 0 0 -2 0 -2 -5 -2 0 3
-2 -2 -0 -1 -5 -3 -1 -3 1 -1 -0 2 2 2 -4 1 -9 7 5 -1 1 5 2 1 8 7 -1 -0 0 -1 -0 -1 -0 1 -0 -0 1 1 -0 -1 -1 1 6 -1 -5
-1 1 -1 -4 -2 -1 -0 -5 -4 -3 -2 0 3 2 -1 -0 -22 17 3 4 2 7 -1 -0 5 -1 -2 -1 0 0 -1 1 1 2 1 -1 0 -1 -0 -1 1 -1 1 2 4
-1 -4 -5 -2 -0 -2 -3 -1 -0 -1 1 3 1 5 5 8 4 2 -3 1 7 9 7 7 -8 -3 -0 -1 -2 -2 -1 -0 1 -3 0 -0 1 1 1 0 -0 2 1 1 3
-8 -3 -1 -3 -2 -4 -3 -2 -1 -3 -2 -0 -4 5 4 -42 -4 -3 4 -11 4 5 3 8 2 7 -3 2 -0 -0 -2 0 -0 -0 -1 -1 -2 -1 1 1 -0 -1 2 2 1
-4 -3 -2 -0 -1 -2 -3 -6 -3 -0 -1 -2 2 7 -5 0 -1 -8 7 -7 4 -1 1 4 12 5 6 5 -2 -3 -3 1 -1 0 -1 -0 -5 -2 6 2 1 2 2 1 2
-4 -4 -4 -4 -2 -2 -3 -3 -6 -3 -2 1 0 -3 -12 -3 -5 -5 -0 -3 -2 6 3 7 5 -0 4 -2 1 -2 -1 0 -2 -1 -0 -2 -2 -1 -1 2 2 0 2 1 1
-1 -5 -0 0 -1 1 -4 -3 -3 -2 -4 -1 -1 -0 -1 -8 1 -6 5 3 -4 7 2 12 5 -1 1 3 -5 -1 -0 1 -1 -1 0 1 -2 -1 0 0 -2 2 1 2 2
-4 -2 -2 -3 -3 -2 -10 -22 -32 -8 -4 -3 2 -3 -5 0 6 -3 -1 -1 4 10 -1 1 -5 -2 -4 0 -2 -2 -1 -1 -0 -1 -1 -1 -0 -3 -1 -0 0 2 0 2 3
-2 -1 -1 -0 -2 -2 -2 -12 9 12 -15 9 0 -2 -1 5 -4 3 5 -4 4 -1 0 4 -1 -2 -1 0 -1 0 -1 1 -0 -0 -1 0 -2 -1 0 -0 -0 -1 1 1 1
-2 -2 -2 0 -4 -5 -3 -0 2 2 3 -16 1 -1 3 6 -0 -2 -0 4 2 -0 1 -4 -2 -0 -1 1 3 0 -2 -0 -3 1 0 -0 -3 0 0 0 2 1 1 1 2
-0 -1 -1 -6 -6 -1 -2 4 -2 2 -1 -12 -4 -1 1 5 1 2 -5 -2 -1 -3 -1 -1 -1 -2 0 -1 -3 1 -2 -1 0 -2 -2 -0 -5 -1 0 -0 0 1 1 1 0
-4 -3 -1 -1 0 -1 2 3 4 0 -9 -17 -9 -0 -6 0 4 -2 2 -3 -1 1 -2 -7 1 -0 0 -5 -2 -1 -1 -2 -1 -1 -1 -0 -4 -9 -0 -0 -1 -0 1 2 2
-1 0 -3 -3 5 3 1 2 1 -20 -13 -9 -2 -6 -6 -1 -3 -2 4 -3 -1 -2 -3 1 2 -3 -4 0 -1 -2 -4 -2 -1 -1 4 -3 -3 -5 -1 -3 1 1 2 1 1
1 1 -3 -1 -4 -2 2 1 -15 -11 -10 -9 -2 -0 1 -2 -4 -1 0 1 1 -1 1 0 0 1 -5 -3 -0 -3 -2 -0 -2 0 -4 -0 -0 -8 0 0 -1 -1 0 1 1
3 -1 1 2 -0 0 2 -12 -11 -3 -1 -3 0 -3 2 1 -3 -2 -1 0 0 -2 -1 -2 1 -0 -0 -4 -8 -1 -1 -7 -5 -2 -2 -0 -3 -8 0 0 0 0 2 1 1
0 -3 -1 -3 -3 -0 -4 -7 -6 -1 2 2 -10 -1 -3 -2 1 -1 1 1 1 -1 -2 -3 1 -3 -0 0 -3 1 0 -2 -5 -0 -2 -2 -6 0 1 0 1 2 1 0 1
-1 -1 -6 -5 0 -2 -12 -0 0 0 2 2 2 -1 1 -1 -0 -0 -0 3 -1 0 -0 -0 -3 1 -2 0 -3 -6 -2 -2 -4 -4 -1 -2 -1 -3 -0 1 1 1 0 0 0
-2 -3 -1 -5 -3 -12 -4 -2 -1 -1 5 5 1 -0 -0 1 2 -0 3 1 -1 -2 -1 -1 -8 -1 -1 -1 -2 -1 -1 -3 -7 -2 -4 -1 -5 -3 -2 -1 -1 -1 0 -0 0
-4 -6 -4 -7 -22 1 -0 2 3 -2 -1 -0 2 1 1 -0 0 -0 2 4 1 2 0 1 -3 -1 -1 -1 1 0 -1 -2 -6 -2 -0 -2 -7 0 -1 -1 -1 -2 -1 0 -0
-2 -3 -1 -6 -5 -2 -5 -2 2 -1 -0 -2 -0 0 -0 1 2 0 -0 -0 -0 -0 2 -0 -1 -1 1 -4 -4 -1 0 -0 -1 -2 -1 -5 -7 -0 0 0 -1 -1 -1 -0 -1
-1 -8 -3 -6 -0 -1 0 -2 -4 -3 0 -1 -0 1 -0 -1 -1 -1 -2 0 -1 0 1 -4 -0 -5 -7 -9 -4 -0 0 0 -3 -2 -2 -4 -1 -0 1 -0 -0 -2 1 1 1
-2 -0 -1 -3 -4 -1 1 1 -1 -2 -1 -1 -3 1 4 -0 -1 -0 -1 -4 -1 0 -1 -3 -1 -1 1 0 -0 -1 -1 0 -2 -1 -5 -4 -1 -2 -2 -2 -2 1 1 1 1
-3 -1 1 1 0 -1 -2 -3 2 -3 4 -3 1 -1 1 2 2 -0 2 0 3 -8 -1 -2 2 -1 -1 -0 -0 -0 0 -0 -0 1 -0 -0 -3 -1 -0 0 1 -0 -1 -1 -0
-1 -3 -0 0 -0 -3 -3 -2 -3 2 -5 1 7 5 -0 2 1 1 0 0 1 0 -0 -2 -1 -2 -2 0 -1 -7 -3 -1 -0 0 -5 -2 -4 -0 -0 -0 -0 -0 -1 0 -0
Height
1521 1518 1515 1512 1509 1506 1503 1500 1496 1493 1490 1488 1485 1482 1478 1475 1470 1468 1465 1466 1467 1470 1470 1472 1474 1476 1478 1480 1481 1482 1485 1486 1481 1482 1475 1475 1476 1478 1478 1479 1482 1483 1483 1486 1491
1521 1518 1515 1512 1508 1504 1501 1497 1493 1490 1486 1484 1482 1480 1477 1472 1466 1460 1458 1456 1457 1460 1464 1466 1469 1472 1475 1476 1478 1479 1481 1475 1470 1471 1470 1471 1473 1475 1479 1480 1482 1482 1483 1485 1490
1522 1518 1515 1511 1506 1502 1499 1495 1491 1487 1484 1480 1477 1474 1475 1472 1466 1456 1455 1455 1456 1453 1457 1463 1467 1467 1471 1472 1473 1473 1473 1471 1468 1467 1469 1469 1472 1474 1476 1481 1479 1479 1480 1486 1490
1520 1516 1513 1510 1506 1500 1496 1492 1488 1484 1480 1476 1473 1470 1471 1473 1472 1455 1454 1453 1453 1451 1453 1458 1463 1465 1465 1468 1469 1472 1469 1470 1467 1467 1469 1470 1470 1473 1475 1477 1477 1479 1481 1483 1489
1519 1516 1511 1507 1503 1498 1493 1489 1484 1479 1474 1471 1469 1468 1468 1467 1451 1454 1452 1451 1451 1452 1450 1454 1458 1460 1462 1462 1465 1468 1468 1468 1468 1469 1469 1470 1471 1471 1473 1475 1477 1478 1482 1485 1489
1518 1514 1510 1505 1500 1495 1489 1484 1479 1474 1469 1464 1462 1462 1463 1459 1448 1448 1448 1449 1449 1448 1448 1451 1453 1458 1459 1458 1459 1460 1464 1467 1467 1468 1470 1470 1471 1471 1472 1473 1476 1478 1481 1485 1488
1516 1512 1507 1502 1497 1491 1485 1480 1474 1468 1462 1458 1455 1455 1456 1445 1446 1447 1446 1445 1444 1444 1442 1445 1451 1454 1456 1458 1456 1459 1463 1466 1467 1467 1469 1471 1473 1471 1471 1473 1475 1478 1481 1484 1488
1515 1510 1505 1500 1494 1487 1481 1475 1470 1462 1457 1456 1453 1452 1447 1445 1445 1444 1443 1441 1439 1439 1440 1442 1446 1451 1451 1452 1456 1459 1463 1465 1466 1466 1466 1470 1471 1467 1469 1471 1473 1476 1479 1483 1487
1513 1508 1503 1498 1491 1484 1477 1469 1463 1458 1456 1453 1450 1448 1445 1444 1442 1442 1439 1438 1437 1437 1438 1440 1443 1446 1449 1452 1458 1464 1465 1468 1465 1465 1466 1468 1470 1467 1467 1469 1471 1474 1477 1480 1485
1510 1505 1501 1496 1489 1481 1474 1467 1460 1454 1455 1449 1448 1448 1444 1443 1440 1438 1434 1434 1435 1435 1437 1438 1441 1447 1449 1447 1451 1458 1466 1468 1465 1466 1468 1470 1470 1468 1468 1468 1468 1472 1474 1478 1482
1508 1503 1499 1494 1487 1481 1471 1460 1458 1456 1451 1456 1449 1448 1442 1441 1437 1431 1429 1430 1431 1433 1435 1434 1440 1439 1443 1448 1450 1457 1460 1460 1463 1464 1465 1469 1470 1466 1468 1468 1467 1469 1472 1476 1479
1505 1501 1496 1491 1486 1481 1476 1471 1474 1473 1459 1449 1446 1443 1440 1439 1435 1430 1429 1431 1429 1429 1429 1438 1440 1443 1443 1446 1449 1453 1460 1464 1463 1463 1466 1469 1466 1464 1465 1467 1467 1468 1471 1474 1477
1504 1499 1494 1489 1485 1481 1475 1474 1473 1470 1466 1448 1444 1442 1440 1440 1434 1430 1429 1428 1429 1428 1430 1436 1437 1438 1444 1447 1451 1456 1455 1464 1461 1464 1466 1468 1466 1466 1466 1467 1468 1469 1471 1474 1477
1504 1498 1492 1486 1483 1478 1475 1472 1466 1468 1469 1453 1445 1443 1440 1437 1434 1431 1429 1430 1431 1433 1435 1435 1438 1439 1443 1445 1447 1452 1453 1457 1461 1465 1471 1474 1471 1465 1465 1468 1468 1470 1471 1474 1477
1501 1496 1491 1485 1483 1480 1476 1470 1465 1467 1496 1449 1446 1443 1440 1438 1435 1431 1430 1429 1428 1431 1435 1435 1436 1440 1442 1442 1444 1451 1453 1457 1462 1467 1472 1475 1480 1460 1466 1467 1466 1468 1471 1474 1477
1499 1494 1490 1487 1482 1477 1471 1467 1467 1479 1494 1454 1448 1445 1441 1435 1434 1431 1429 1430 1430 1429 1430 1431 1432 1435 1439 1442 1442 1450 1458 1465 1470 1471 1468 1487 1473 1458 1463 1464 1465 1468 1471 1474 1477
1497 1492 1488 1485 1480 1475 1470 1467 1481 1488 1462 1458 1453 1450 1445 1440 1435 1433 1429 1427 1425 1430 1437 1437 1437 1437 1439 1446 1449 1450 1458 1467 1469 1470 1475 1490 1481 1458 1461 1464 1465 1467 1469 1473 1477
1497 1492 1489 1486 1480 1474 1469 1471 1495 1472 1475 1461 1457 1451 1447 1442 1436 1436 1430 1427 1430 1430 1440 1437 1443 1442 1440 1441 1446 1450 1453 1464 1471 1478 1472 1482 1480 1452 1465 1465 1464 1465 1469 1473 1477
1494 1490 1489 1484 1478 1475 1472 1492 1492 1487 1473 1466 1456 1456 1455 1445 1444 1438 1437 1433 1431 1432 1432 1446 1443 1444 1441 1440 1442 1453 1453 1458 1482 1489 1478 1472 1465 1463 1465 1465 1466 1467 1470 1473 1477
1492 1488 1488 1485 1480 1475 1478 1486 1482 1478 1473 1466 1462 1460 1457 1451 1447 1440 1442 1440 1435 1433 1434 1441 1446 1449 1444 1444 1446 1446 1451 1458 1471 1485 1489 1474 1470 1454 1460 1464 1468 1470 1470 1474 1477
1492 1489 1490 1485 1482 1480 1496 1493 1484 1477 1474 1469 1463 1461 1459 1455 1449 1444 1445 1442 1439 1436 1435 1439 1448 1451 1447 1446 1447 1449 1453 1459 1465 1478 1481 1473 1457 1464 1466 1467 1467 1469 1471 1473 1476
1494 1494 1491 1486 1488 1495 1500 1494 1485 1478 1474 1470 1468 1465 1463 1456 1451 1448 1447 1445 1444 1440 1438 1441 1452 1454 1452 1449 1449 1446 1449 1453 1460 1478 1494 1483 1462 1463 1463 1464 1465 1468 1470 1473 1475
1496 1495 1495 1490 1504 1506 1500 1493 1487 1480 1475 1473 1471 1468 1464 1460 1456 1451 1449 1448 1445 1442 1441 1442 1454 1453 1449 1453 1451 1450 1451 1459 1466 1475 1485 1471 1462 1462 1461 1463 1465 1467 1470 1472 1475
1498 1500 1497 1495 1502 1505 1503 1495 1489 1481 1478 1477 1473 1467 1465 1461 1459 1457 1451 1448 1447 1445 1444 1444 1457 1457 1456 1457 1458 1460 1460 1456 1458 1464 1484 1477 1464 1459 1462 1466 1465 1466 1470 1472 1473
1502 1505 1505 1507 1502 1506 1505 1499 1492 1487 1480 1478 1472 1472 1471 1474 1466 1461 1457 1452 1448 1448 1447 1449 1454 1457 1457 1455 1457 1456 1465 1466 1468 1466 1461 1468 1470 1467 1464 1464 1465 1467 1469 1470 1470
1504 1506 1506 1504 1503 1504 1504 1502 1496 1490 1488 1478 1478 1473 1471 1468 1469 1468 1465 1462 1460 1453 1456 1454 1454 1464 1467 1458 1460 1458 1457 1464 1468 1465 1469 1476 1472 1463 1463 1463 1464 1465 1466 1466 1467
1503 1505 1506 1505 1505 1508 1506 1500 1495 1491 1483 1481 1478 1473 1470 1469 1469 1467 1467 1466 1466 1465 1462 1465 1465 1469 1471 1468 1474 1464 1471 1467 1466 1469 1464 1467 1461 1463 1462 1462 1463 1463 1463 1464 1464